| Date | Time | Temp. (oF) | Dew Point (oF) | Rel. Hum. (%) | Press. (in.) | Wind Dir. | Wind Speed (mph) | Hourly Rainfall (in.) |
|
|---|---|---|---|---|---|---|---|---|---|
| 1 | 10/13 | 00:00 | 59 | 58 | 99 | 30.17 | E | 1 | 0.00 |
| 2 | 10/12 | 23:00 | 59 | 58 | 99 | 30.18 | NNE | 6 | 0.00 |
| 3 | 10/12 | 22:00 | 59 | 58 | 99 | 30.19 | N | 5 | 0.00 |
| 4 | 10/12 | 21:00 | 60 | 58 | 95 | 30.19 | ENE | 6 | 0.00 |
| 5 | 10/12 | 20:00 | 61 | 59 | 95 | 30.18 | ENE | 7 | 0.00 |
| 6 | 10/12 | 19:00 | 63 | 61 | 94 | 30.17 | ENE | 6 | 0.00 |
| 7 | 10/12 | 18:00 | 63 | 60 | 93 | 30.15 | ENE | 3 | 0.00 |
| 8 | 10/12 | 17:00 | 64 | 62 | 94 | 30.14 | ENE | 4 | 0.01 |
| 9 | 10/12 | 16:00 | 64 | 62 | 94 | 30.13 | NE | 14 | 0.00 |
| 10 | 10/12 | 15:00 | 64 | 62 | 96 | 30.13 | ENE | 4 | 0.00 |
| 11 | 10/12 | 14:00 | 64 | 63 | 97 | 30.14 | E | 6 | 0.00 |
| 12 | 10/12 | 13:00 | 64 | 63 | 99 | 30.14 | NNE | 2 | 0.00 |
| 13 | 10/12 | 12:00 | 63 | 63 | 100 | 30.15 | N | 5 | 0.00 |
| 14 | 10/12 | 11:00 | 61 | 60 | 100 | 30.16 | NNE | 6 | 0.00 |
| 15 | 10/12 | 10:00 | 60 | 59 | 100 | 30.15 | NNE | 4 | 0.00 |
| 16 | 10/12 | 09:00 | 59 | 59 | 100 | 30.14 | ENE | 7 | 0.00 |
| 17 | 10/12 | 08:00 | 59 | 59 | 100 | 30.12 | NNE | 4 | 0.00 |
| 18 | 10/12 | 07:00 | 59 | 59 | 100 | 30.12 | N | 5 | 0.00 |
| 19 | 10/12 | 06:00 | 59 | 59 | 100 | 30.11 | ENE | 6 | 0.00 |
| 20 | 10/12 | 05:00 | 60 | 59 | 100 | 30.10 | ENE | 7 | 0.00 |
| 21 | 10/12 | 04:00 | 60 | 59 | 100 | 30.09 | N | 7 | 0.00 |
| 22 | 10/12 | 03:00 | 59 | 59 | 100 | 30.10 | NNE | 2 | 0.00 |
| 23 | 10/12 | 02:00 | 59 | 59 | 100 | 30.11 | N | 4 | 0.00 |
| 24 | 10/12 | 01:00 | 59 | 59 | 100 | 30.12 | N | 5 | 0.00 |